User: anonymous   Login
Location: Unspecified
(0.0000°N, 0.0000°E)
Time: 17:06:30
(UTC+00:00)
Language:

SPORESAT - Orbit

View from above orbital plane
View from above orbital plane
View from above satellite
View from above satellite

Ground track
Ground track

The orbit data is extracted from the following two-line orbital elements,

1 39681U 14022B   14154.46327779  .09117285  12564-4  29119-3 0  9996
2 39681 051.6203 150.5796 0001470 008.4241 352.1352 16.45052853  7311
Epoch (UTC): 03 June 2014 11:07:07
Eccentricity: 0.0001470
inclination: 51.6203°
perigee height: 151 km
apogee height: 153 km
right ascension of ascending node: 150.5796°
argument of perigee: 8.4241°
revolutions per day: 16.45052853
mean anomaly at epoch: 352.1352°
orbit number at epoch: 731

The dashed part of the orbit path shows where the satellite is in the earth's shadow,  

DLR